This demonstration page uses our WeatherBlox Daily Observations layout. Learn more.

Left ArrowRight Arrow

44.89941, -97.11507

Hourly Observations for February 7, 2021

Temp ( °F °C ) Dew Point ( °F °C ) Humidity (%) Winds ( mph kmh ) Pressure ( in mb ) Visibility ( mi km ) Precip ( " mm )
12:53 am 00:53 Clear -13 -25 -19 -28.3 74 74 Calm 30.30 1026 10 16 0.00 0.00
1:53 am 01:53 Clear -13 -25 -19 -28.3 74 74 Calm 30.30 1026 10 16 0.00 0.00
2:53 am 02:53 Clear -13 -25 -19 -28.3 74 74 Calm 30.31 1026 10 16 0.00 0.00
3:53 am 03:53 Clear -13 -25 -19 -28.3 74 74 Calm 30.31 1026 10 16 0.00 0.00
4:53 am 04:53 Clear -15 -26.1 -21 -29.4 74 74 Calm 30.32 1027 10 16 0.00 0.00
5:53 am 05:53 Clear -15 -26.1 -20 -28.9 77 77 Calm 30.32 1027 10 16 0.00 0.00
6:53 am 06:53 Clear -16 -26.7 -21 -29.4 78 78 NE 5 7 30.32 1027 10 16 0.00 0.00
7:53 am 07:53 Mostly Cloudy -14 -25.6 -20 -28.9 74 74 Calm 30.34 1028 10 16 0.00 0.00
8:53 am 08:53 Cloudy -12 -24.4 -19 -28.3 70 70 Calm 30.36 1028 10 16 0.00 0.00
9:53 am 09:53 Cloudy -11 -23.9 -18 -27.8 70 70 N 6 9 30.37 1028 10 16 0.00 0.00
10:53 am 10:53 Cloudy -10 -23.3 -17 -27.2 70 70 NE 7 11 30.36 1028 10 16 0.00 0.00
11:53 am 11:53 Cloudy -9 -22.8 -17 -27.2 67 67 NNE 6 9 30.35 1028 10 16 0.00 0.00
12:53 pm 12:53 Cloudy with Light Snow -7 -21.7 -16 -26.7 64 64 NNE 6 9 30.33 1027 2 3 0.00 0.00
1:00 pm 13:00 Cloudy with Light Snow -7 -21.7 -16 -26.7 64 64 NNE 5 7 30.42 1030 2 3 0.00 0.00
1:18 pm 13:18 Cloudy with Light Snow -7 -21.7 -15 -26.1 68 68 NW 3 6 30.41 1030 2 3 0.00 0.00
1:53 pm 13:53 Cloudy with Light Snow -6 -21.1 -13 -25 71 71 NNW 5 7 30.32 1027 2 2 0.00 0.00
1:55 pm 13:55 Cloudy with Light Snow -6 -21.1 -13 -25 71 71 N 5 7 30.41 1030 1 2 0.00 0.00
2:17 pm 14:17 Cloudy with Light Snow -6 -21.1 -13 -25 71 71 NNW 5 7 30.41 1030 2 2 0.00 0.00
2:26 pm 14:26 Cloudy with Light Snow -6 -21.1 -13 -25 71 71 N 3 6 30.41 1030 2 2 0.00 0.00
2:39 pm 14:39 Cloudy with Light Snow -6 -21.1 -12 -24.4 75 75 N 6 9 30.41 1030 3 4 0.00 0.00
2:53 pm 14:53 Cloudy with Light Snow -6 -21.1 -13 -25 71 71 Calm 30.34 1028 3 4 0.00 0.00
3:09 pm 15:09 Cloudy with Light Snow -6 -21.1 -13 -25 71 71 Calm 30.42 1030 1 2 0.00 0.00
3:21 pm 15:21 Cloudy with Light Snow -6 -21.1 -13 -25 71 71 Calm 30.42 1030 2 2 0.00 0.00
3:53 pm 15:53 Cloudy with Light Snow -6 -21.1 -13 -25 71 71 N 3 6 30.33 1027 2 2 0.00 0.00
4:06 pm 16:06 Cloudy with Light Snow -6 -21.1 -12 -24.4 75 75 Calm 30.41 1030 1 2 0.00 0.00
4:38 pm 16:38 Cloudy with Light Snow -5 -20.6 -11 -23.9 75 75 Calm 30.40 1030 2 3 0.00 0.00
4:48 pm 16:48 Cloudy with Haze -6 -21 -11 -24 77 77 Calm 30.42 1030 5 8 0.00 0.00
4:53 pm 16:53 Cloudy with Haze -5 -20.6 -12 -24.4 72 72 Calm 30.34 1027 6 10 0.00 0.00
5:53 pm 17:53 Cloudy with Light Snow -6 -21.1 -12 -24.4 75 75 Calm 30.34 1027 4 6 0.00 0.00
6:53 pm 18:53 Cloudy -6 -21.1 -12 -24.4 75 75 NW 5 7 30.36 1028 8 13 0.00 0.00
7:53 pm 19:53 Cloudy with Haze -6 -21.1 -12 -24.4 75 75 N 7 11 30.37 1028 6 10 0.00 0.00
8:53 pm 20:53 Cloudy with Haze -6 -21.1 -12 -24.4 75 75 N 5 7 30.37 1028 4 6 0.00 0.00
9:53 pm 21:53 Cloudy -6 -21.1 -12 -24.4 75 75 N 6 9 30.38 1029 9 14 0.00 0.00
10:53 pm 22:53 Partly Cloudy -9 -22.8 -14 -25.6 78 78 N 5 7 30.38 1029 10 16 0.00 0.00
11:53 pm 23:53 Clear -10 -23.3 -14 -25.6 81 81 Calm 30.37 1029 10 16 0.00 0.00

Powered by AerisWeather